Cancun International Airp, Mexico

11:12 AM EST on September 29, 2016 (GMT -0500)
Cancun International

Weather History for MMUN - October, 2013

Change the Weather History Date:

Tuesday, October 15, 2013

  Actual Average Record
Temperature  
Mean Temperature 78 °F -  
Max Temperature 86 °F 87 °F 95 °F (2004)
Min Temperature 69 °F 72 °F 66 °F (2010)
Cooling Degree Days 12    
Growing Degree Days 28 (Base 50)    
Moisture  
Dew Point 71 °F    
Average Humidity 84    
Maximum Humidity 100    
Minimum Humidity 62    
Precipitation  
Precipitation 0.00 in - - ()
Sea Level Pressure  
Sea Level Pressure 29.92 in    
Wind  
Wind Speed 2 mph ()    
Max Wind Speed 9 mph    
Max Gust Speed -    
Visibility 7.0 miles    
Events      
Averages and records for this station are not official NWS values.
T = Trace of Precipitation, MM = Missing Value Source: Averaged Metar Reports

Daily Weather History Graph

Daily Weather History Graph

Search for Another Location

Airport or City:

Trip Planner

Search our weather history database for the weather conditions in past years. The results will help you decide how hot, cold, wet, or windy it might be!

Date:

Astronomy

Oct. 15, 2013 Rise Set
Actual Time 6:43 AM CDT 6:23 PM CDT
Civil Twilight 6:20 AM CDT 6:45 PM CDT
Nautical Twilight 5:54 AM CDT 7:11 PM CDT
Astronomical Twilight 5:29 AM CDT 7:36 PM CDT
Moon 4:07 PM CDT (10/15) 3:29 AM CDT (10/15)
Length of Visible Light 12h 24m
Length of Day
11h 39m
Waxing Gibbous, 88% of the Moon is Illuminated
Oct 15
Waxing Gibbous
Oct 18
Full
Oct 26
Last Quarter
Nov 3
New
Nov 9
First Quarter

Hourly Weather History & Observations

Time (CDT) Temp. Heat Index Dew Point Humidity Pressure Visibility Wind Dir Wind Speed Gust Speed Precip Events Conditions
12:45 AM 71.6 °F - 69.8 °F 94% 29.92 in 7.0 mi Calm Calm - N/A   Clear
1:44 AM 71.6 °F - 69.8 °F 94% 29.92 in 7.0 mi Calm Calm - N/A   Partly Cloudy
2:43 AM 69.8 °F - 69.8 °F 100% 29.91 in 7.0 mi Calm Calm - N/A   Partly Cloudy
3:46 AM 69.8 °F - 68.0 °F 94% 29.89 in 7.0 mi Calm Calm - N/A   Scattered Clouds
4:45 AM 69.8 °F - 68.0 °F 94% 29.90 in 7.0 mi Calm Calm - N/A   Scattered Clouds
5:44 AM 69.8 °F - 68.0 °F 94% 29.91 in 7.0 mi NNW 5.8 mph - N/A   Partly Cloudy
6:43 AM 69.8 °F - 69.8 °F 100% 29.92 in 7.0 mi NNW 5.8 mph - N/A   Scattered Clouds
7:40 AM 73.4 °F - 69.8 °F 88% 29.93 in 7.0 mi NNW 5.8 mph - N/A   Scattered Clouds
8:55 AM 80.6 °F 85.4 °F 73.4 °F 79% 29.95 in 7.0 mi NNW 5.8 mph - N/A   Scattered Clouds
9:51 AM 82.4 °F 88.2 °F 73.4 °F 74% 29.97 in 7.0 mi NNW 4.6 mph - N/A   Scattered Clouds
10:42 AM 84.2 °F 90.9 °F 73.4 °F 70% 29.96 in 7.0 mi NNE 4.6 mph - N/A   Mostly Cloudy
11:43 AM 82.4 °F 88.2 °F 73.4 °F 74% 29.94 in 7.0 mi NNW 2.3 mph - N/A   Mostly Cloudy
12:47 PM 84.2 °F 90.9 °F 73.4 °F 70% 29.93 in 7.0 mi Calm Calm - N/A   Mostly Cloudy
1:40 PM 86.0 °F 91.8 °F 71.6 °F 62% 29.90 in 7.0 mi East 4.6 mph - N/A   Mostly Cloudy
2:45 PM 82.4 °F 88.2 °F 73.4 °F 74% 29.89 in 7.0 mi East 9.2 mph - N/A   Scattered Clouds
3:45 PM 82.4 °F 88.2 °F 73.4 °F 74% 29.89 in 7.0 mi East 8.1 mph - N/A   Mostly Cloudy
4:46 PM 82.4 °F 88.2 °F 73.4 °F 74% 29.88 in 7.0 mi ESE 5.8 mph - N/A   Scattered Clouds
5:42 PM 82.4 °F 88.2 °F 73.4 °F 74% 29.89 in 7.0 mi East 4.6 mph - N/A   Scattered Clouds
6:52 PM 78.8 °F - 71.6 °F 78% 29.89 in 7.0 mi ENE 2.3 mph - N/A   Scattered Clouds
7:41 PM 77.0 °F - 71.6 °F 83% 29.93 in 7.0 mi ENE 2.3 mph - N/A   Scattered Clouds
8:40 PM 75.2 °F - 71.6 °F 89% 29.94 in 7.0 mi ENE 2.3 mph - N/A   Partly Cloudy
9:47 PM 73.4 °F - 71.6 °F 94% 29.95 in 7.0 mi Calm Calm - N/A   Partly Cloudy
10:50 PM 73.4 °F - 71.6 °F 94% 29.96 in 7.0 mi NW 3.5 mph - N/A   Partly Cloudy
11:48 PM 71.6 °F - 69.8 °F 94% 29.96 in 7.0 mi West 2.3 mph - N/A   Clear